H125 LFBO-LFBT

Flight info

Callsign H125
Flight time N/A
Altitude 12000
Route 430610N0000805E 430321N0000931E 430156N0000959E 430115N0001018E 430038N0000840E 425953N0000755E 425913N0000653E 425611N0000834E DCT 425808N0000621E
Aircraft H160/L-SBDGRY/S

Departure

Time N/A
Airport Toulouse-Blagnac Airport (LFBO)

Arrival

Time 2026-04-28 16:44
Airport Tarbes-Lourdes-Pyrénées Airport (LFBT)
Time Latitude Longitude Altitude Speed Heading
2026-04-28 16:09 42.93648 0.14230 9465 ft 0 kts 189°
2026-04-28 16:36 42.93644 0.14282 9590 ft 43 kts 111°
2026-04-28 16:36 42.93831 0.14869 9915 ft 88 kts 76°
2026-04-28 16:37 42.93962 0.15729 10174 ft 109 kts 72°
2026-04-28 16:37 42.94701 0.16438 10220 ft 156 kts 14°
2026-04-28 16:37 42.95846 0.16190 10070 ft 177 kts 330°
2026-04-28 16:38 42.97596 0.13787 9998 ft 180 kts 301°
2026-04-28 16:38 42.98284 0.12363 9987 ft 180 kts 296°
2026-04-28 16:38 42.98967 0.10921 9986 ft 183 kts 300°
2026-04-28 16:38 42.99830 0.09618 9983 ft 188 kts 313°
2026-04-28 16:39 43.00927 0.08605 9979 ft 192 kts 327°
2026-04-28 16:39 43.02139 0.07901 10009 ft 184 kts 337°
2026-04-28 16:39 43.03337 0.07442 9736 ft 166 kts 346°
2026-04-28 16:39 43.04227 0.07228 10099 ft 100 kts 347°
2026-04-28 16:40 43.04787 0.07060 10142 ft 80 kts 343°
2026-04-28 16:40 43.05416 0.06839 9216 ft 107 kts 343°
2026-04-28 16:40 43.06195 0.06521 8359 ft 111 kts 340°
2026-04-28 16:40 43.06882 0.06182 7728 ft 99 kts 334°
2026-04-28 16:41 43.07519 0.05842 7238 ft 86 kts 334°
2026-04-28 16:41 43.08128 0.05419 7067 ft 117 kts 331°
2026-04-28 16:41 43.08866 0.04820 5886 ft 136 kts 331°
2026-04-28 16:41 43.09731 0.04202 5020 ft 121 kts 339°
2026-04-28 16:42 43.10231 0.03905 5296 ft 68 kts 346°
2026-04-28 16:42 43.10646 0.03726 5305 ft 57 kts 351°
2026-04-28 16:42 43.11064 0.03538 5387 ft 81 kts 343°
2026-04-28 16:42 43.11703 0.03220 5332 ft 108 kts 341°
2026-04-28 16:43 43.12444 0.02848 4639 ft 137 kts 343°
2026-04-28 16:43 43.13508 0.02341 3188 ft 176 kts 343°
2026-04-28 16:43 43.14502 0.01819 2738 ft 135 kts 341°
2026-04-28 16:43 43.15220 0.01439 2323 ft 103 kts 349°
2026-04-28 16:44 43.15925 0.01305 1701 ft 96 kts 358°
2026-04-28 16:44 43.16467 0.01149 1432 ft 54 kts 355°
2026-04-28 16:44 43.16702 0.01021 1463 ft 39 kts 357°
2026-04-28 16:44 43.16988 0.00802 1531 ft 58 kts 319°
2026-04-28 16:45 43.17006 0.00243 1543 ft 63 kts 262°
2026-04-28 16:45 43.16822 -0.00220 1444 ft 45 kts 250°
2026-04-28 16:45 43.16923 -0.00498 1361 ft 35 kts 341°
2026-04-28 16:45 43.17189 -0.00694 1325 ft 45 kts 16°
2026-04-28 16:46 43.17510 -0.00556 1276 ft 55 kts 35°
2026-04-28 16:46 43.17871 -0.00303 1235 ft 62 kts 40°
2026-04-28 16:46 43.18227 -0.00042 1240 ft 48 kts 57°
2026-04-28 16:46 43.18437 0.00078 1214 ft 18 kts 35°
2026-04-28 16:47 43.18479 -0.00014 1203 ft 16 kts 351°
2026-04-28 16:47 43.18518 -0.00137 1212 ft 16 kts 276°
2026-04-28 16:47 43.18560 -0.00311 1247 ft 35 kts 300°
2026-04-28 16:47 43.18631 -0.00611 1226 ft 21 kts 298°
2026-04-28 16:48 43.18630 -0.00726 1223 ft 13 kts
2026-04-28 16:48 43.18703 -0.00741 1195 ft 14 kts 135°
2026-04-28 16:48 43.18707 -0.00737 1192 ft 0 kts 139°
2026-04-28 16:48 43.18709 -0.00729 1198 ft 6 kts 119°
2026-04-28 16:49 43.18807 -0.00671 1203 ft 26 kts 40°
2026-04-28 16:49 43.19001 -0.00582 1207 ft 32 kts 38°
2026-04-28 16:49 43.19164 -0.00635 1203 ft 14 kts 122°
2026-04-28 16:49 43.19104 -0.00606 1196 ft 22 kts 198°
2026-04-28 16:50 43.19060 -0.00612 1182 ft 0 kts 190°
2026-04-28 17:09 43.18989 -0.00640 1232 ft 23 kts 185°
2026-04-28 17:10 43.18794 -0.00679 1301 ft 36 kts 186°
2026-04-28 17:10 43.18574 -0.00514 1335 ft 48 kts 117°
2026-04-28 17:10 43.18504 -0.00083 1298 ft 44 kts 79°
2026-04-28 17:10 43.18657 0.00139 1243 ft 27 kts 34°
2026-04-28 17:11 43.18753 0.00150 1211 ft 2 kts 114°
2026-04-28 17:11 43.18751 0.00170 1202 ft 0 kts 131°